Location: hvezdarna zebrak
(49.8744°N, 13.8989°E)
Time: 15:41:23
(UTC+01:00)

N. Korean satellite - Visible Passes

Search period start: 30 January 2023 00:00
Search period end: 09 February 2023 00:00
Orbit: 407 x 444 km, 97.3° (Epoch: 29 January)

Date Brightness Start Highest point End Pass type
(mag) Time Alt. Az. Time Alt. Az. Time Alt. Az.
30 Jan 9.4 04:37:45 10° NE 04:39:46 15° E 04:41:46 10° SE visible
30 Jan 6.8 06:09:13 10° N 06:12:12 36° WNW 06:15:11 10° SW visible
31 Jan 6.7 05:26:40 10° NNE 05:29:52 62° ESE 05:33:04 10° S visible
31 Jan 8.3 07:00:49 10° NW 07:01:41 11° WNW 07:02:35 10° WNW visible
31 Jan 9.5 17:32:11 10° SW 17:34:07 15° W 17:36:04 10° NW visible
01 Feb 9.1 04:44:52 10° NE 04:47:13 19° E 04:49:35 10° SE visible
01 Feb 7.1 06:16:43 10° N 06:19:34 29° WNW 06:22:26 10° SW visible
02 Feb 6.3 05:33:55 10° NNE 05:37:09 78° ESE 05:40:23 10° S visible
02 Feb 9.7 17:39:54 10° WSW 17:41:23 13° W 17:42:51 10° WNW visible
03 Feb 8.8 04:51:48 10° NE 04:54:25 22° E 04:57:03 10° SSE visible
03 Feb 7.3 06:23:58 10° N 06:26:40 25° WNW 06:29:24 10° SW visible
04 Feb 6.1 05:40:55 10° NNE 05:44:10 85° W 05:47:26 10° SSW visible
04 Feb 10.1 17:47:44 10° WSW 17:48:24 10° W 17:49:04 10° WNW visible
05 Feb 8.5 04:58:33 10° NE 05:01:22 26° E 05:04:11 10° SSE visible
05 Feb 7.6 06:30:58 10° NNW 06:33:31 21° WNW 06:36:04 10° WSW visible
06 Feb 6.1 05:47:41 10° N 05:50:56 70° WNW 05:54:10 10° SSW visible
07 Feb 8.1 05:05:04 10° NNE 05:08:02 32° E 05:11:00 10° SSE visible
07 Feb 7.8 06:37:46 10° NNW 06:40:06 18° WNW 06:42:27 10° WSW visible
08 Feb 9.9 04:24:08 10° ENE 04:24:50 11° E 04:25:32 10° ESE visible
08 Feb 6.3 05:54:13 10° N 05:57:25 57° WNW 06:00:39 10° SSW visible
